www.pogodaiklimat.ru
ПОГОДА в Сарыканде

Архив погоды в Сарыканде (Андижанская область, Узбекистан)

Время
и дата
04:30 28.05
04:40 28.05
04:50 28.05
05:00 28.05
05:20 28.05
05:30 28.05
05:50 28.05
06:00 28.05
06:10 28.05
06:20 28.05
06:30 28.05
06:40 28.05
06:50 28.05
07:00 28.05
07:10 28.05
07:20 28.05
07:30 28.05
07:40 28.05
07:50 28.05
08:00 28.05
08:10 28.05
08:30 28.05
08:40 28.05
08:50 28.05
09:00 28.05
09:10 28.05
09:20 28.05
09:30 28.05
09:40 28.05
09:50 28.05
10:10 28.05
10:20 28.05
10:40 28.05
10:50 28.05
11:00 28.05
11:10 28.05
11:20 28.05
11:30 28.05
11:40 28.05
11:50 28.05
12:00 28.05
12:10 28.05
12:20 28.05
12:30 28.05
13:00 28.05
13:10 28.05
13:20 28.05
13:30 28.05
13:40 28.05
14:00 28.05
14:20 28.05
14:30 28.05
14:40 28.05
15:00 28.05
15:10 28.05
15:20 28.05
15:30 28.05
15:40 28.05
16:10 28.05
16:20 28.05
16:30 28.05
16:40 28.05
16:50 28.05
17:00 28.05
17:10 28.05
17:20 28.05
17:40 28.05
17:50 28.05
18:00 28.05
18:10 28.05
18:20 28.05
18:30 28.05
18:40 28.05
18:50 28.05
19:00 28.05
19:10 28.05
19:20 28.05
19:30 28.05
19:40 28.05
19:50 28.05
20:10 28.05
20:20 28.05
20:30 28.05
20:40 28.05
20:50 28.05
21:00 28.05
21:10 28.05
21:20 28.05
21:30 28.05
21:40 28.05
21:50 28.05
22:10 28.05
22:20 28.05
22:30 28.05
22:40 28.05
22:50 28.05
23:00 28.05
23:10 28.05
23:30 28.05
23:50 28.05
00:00 29.05
00:10 29.05
00:30 29.05
00:40 29.05
01:00 29.05
01:20 29.05
01:30 29.05
01:40 29.05
01:50 29.05
02:00 29.05
02:10 29.05
02:20 29.05
02:30 29.05
02:40 29.05
02:50 29.05
03:00 29.05
03:10 29.05
03:20 29.05
03:30 29.05
03:40 29.05
03:50 29.05
04:00 29.05
04:10 29.05
04:20 29.05
04:40 29.05
04:50 29.05
05:00 29.05
05:10 29.05
05:20 29.05
05:30 29.05
05:40 29.05
05:50 29.05
06:00 29.05
06:10 29.05
06:20 29.05
06:30 29.05
06:40 29.05
06:50 29.05
07:00 29.05
07:10 29.05
07:20 29.05
07:30 29.05
07:40 29.05
08:00 29.05
Ветер
(напр.,м/с)
Видимость Явления Солнечная радиация
(Вт/м2)
Т
(С)
Тd
(С)
f
(%)
Тe
(С)
Тes
(С)
Комфортность P
(гПа)
Po
(гПа)
Тmin
(С)
Tmax
(С)
R
(мм)
ЮВ 0.7
{1.2}
+10.6 +10.6 100 +11 +11 1017.4 880.9 +10.8 +10.6
Ю 0.6
{1.2}
+10.3 +10.3 100 +10 +10 1017.5 881.0 +10.6 +10.3
Ю 0.7
{1.4}
+10.0 +10.0 100 +10 +10 1017.5 881.0 +10.3 +10.2
Ю 0.6
{1.0}
+10.0 +10.0 100 +10 +10 1017.6 881.1 +10.2 +10.0
ЮВ 0.6
{1.7}
+9.9 +9.9 100 +10 +10 1017.7 881.2 +10.0 +9.9
ЮВ 0.8
{1.8}
+9.9 +9.9 100 +10 +10 1017.9 881.3 +10.0 +9.9
ЮВ 0.7
{1.5}
+10.6 +10.6 100 +11 +11 1018.0 881.4 +10.6 +10.0
Ю 0.5
{1.4}
+11.5 +11.5 100 +12 +12 1018.0 881.4 +11.5 +10.6
Ю 0.6
{1.2}
+12.4 +12.4 100 +13 +13 1018.0 881.4 +12.3 +11.5
Ю 0.6
{1.1}
+13.2 +13.2 100 +14 +14 1018.0 881.4 +13.2 +12.4
ЮВ 0.4
{1.0}
+14.1 +13.7 98 +15 +15 1018.0 881.4 +14.1 +13.2
Ю 0.6
{1.4}
+14.5 +11.0 80 +15 +15 1018.0 881.4 +14.5 +14.1
Ю 0.6
{1.3}
+15.5 +9.4 67 +17 +17 1018.0 881.4 +15.5 +14.5
Ю 0.3
{0.7}
+16.5 +9.2 62 +18 +18 1018.0 881.4 +16.5 +15.5
Ю 0.5
{1.1}
+17.7 +7.2 50 +19 +19 1018.0 881.4 +17.7 +16.5
Ю 0.3
{0.6}
+18.6 +7.9 50 +21 +21 комфорт 1018.0 881.4 +18.5 +17.7
Ю 0.4
{0.8}
+19.4 +7.9 47 +22 +22 комфорт 1017.8 881.3 +19.4 +18.6
Ю 0.4
{0.8}
+20.0 +7.7 45 +23 +23 комфорт 1017.8 881.3 +20.0 +19.4
Ю 0.6
{1.2}
+20.4 +7.0 42 +23 +23 комфорт 1017.8 881.3 +20.3 +20.0
ЮЗ 0.5
{1.5}
+20.7 +7.2 42 +23 +23 комфорт 1017.8 881.3 +20.7 +20.1
ЮЗ 0.5
{1.5}
+20.8 +9.0 47 +24 +24 комфорт 1017.8 881.3 +20.9 +20.6
Ю 0.4
{1.2}
+22.0 +7.7 40 +23 +23 комфорт 1017.7 881.2 +21.9 +21.0
ЮВ 0.2
{0.6}
+22.2 +8.4 41 +23 +23 комфорт 1017.6 881.1 +22.3 +22.0
Ю 0.4
{1.3}
+22.9 +7.3 37 +24 +24 комфорт 1017.6 881.1 +22.9 +22.2
З 0.6
{2.4}
+22.9 +5.7 33 +23 +23 комфорт 1017.6 881.1 +23.1 +22.9
СЗ 0.8
{1.9}
+22.9 +7.0 36 +24 +24 комфорт 1017.5 881.0 +23.0 +22.7
С 1.4
{4.0}
+22.7 +5.9 34 +23 +23 комфорт 1017.5 881.0 +23.0 +22.7
С 1.4
{3.5}
+22.6 +5.1 32 +23 +23 комфорт 1017.5 881.0 +22.8 +22.6
СЗ 1.9
{3.6}
+22.6 +4.1 30 +23 +23 комфорт 1017.5 881.0 +22.7 +22.4
СЗ 1.6
{3.4}
+23.1 +6.9 35 +24 +24 комфорт 1017.5 881.0 +23.2 +22.6
СЗ 2.1
{5.1}
+23.1 +6.6 34 +24 +24 комфорт 1017.5 881.0 +23.1 +22.8
СЗ 2.2
{5.1}
+23.2 +4.0 29 +23 +23 комфорт 1017.5 881.0 +23.4 +23.1
СЗ 2.2
{4.9}
+23.8 +6.3 32 +24 +24 комфорт 1017.4 880.9 +23.8 +23.2
СЗ 2.2
{5.0}
+23.9 +4.8 29 +24 +24 комфорт 1017.4 880.9 +23.9 +23.7
СЗ 2.3
{5.0}
+23.9 +4.4 28 +24 +24 комфорт 1017.4 880.9 +24.0 +23.9
СЗ 2.6
{4.5}
+23.7 +3.7 27 +23 +23 комфорт 1017.3 880.8 +23.9 +23.6
СЗ 2.3
{4.7}
+24.1 +3.3 26 +23 +23 комфорт 1017.2 880.7 +24.1 +23.6
С 1.9
{4.2}
+24.1 +3.4 26 +23 +23 комфорт 1017.2 880.7 +24.2 +23.9
З 1.3
{4.0}
+24.3 +4.0 27 +24 +24 комфорт 1017.1 880.6 +24.3 +24.0
СЗ 2.0
{4.3}
+24.6 +3.5 25 +24 +24 комфорт 1016.9 880.5 +24.6 +24.3
СЗ 1.9
{4.6}
+24.8 +5.0 28 +24 +24 комфорт 1016.8 880.4 +24.8 +24.5
СЗ 1.9
{4.7}
+24.8 +5.1 28 +24 +24 комфорт 1016.8 880.4 +25.0 +24.7
СЗ 2.0
{4.7}
+25.1 +4.6 27 +25 +25 комфорт 1016.7 880.3 +25.4 +24.8
СЗ 1.9
{4.5}
+25.0 +5.5 29 +25 +25 комфорт 1016.7 880.3 +25.1 +24.9
С 1.7
{4.8}
+23.9 +5.7 31 +24 +24 комфорт 1016.7 880.3 +24.8 +23.9
СЗ 1.5
{3.9}
+23.7 +6.5 33 +24 +24 комфорт 1016.7 880.3 +23.9 +23.6
СЗ 1.6
{5.5}
+23.4 +5.7 32 +24 +24 комфорт 1016.8 880.4 +23.7 +23.4
СЗ 2.0
{4.4}
+23.5 +5.2 31 +23 +23 комфорт 1016.8 880.4 +23.5 +23.4
СЗ 1.7
{3.9}
+23.7 +7.9 36 +24 +24 комфорт 1016.8 880.4 +23.7 +23.5
СЗ 2.2
{5.0}
+23.9 +5.6 31 +24 +24 комфорт 1016.8 880.4 +23.9 +23.6
СЗ 1.5
{3.9}
+23.3 +5.9 32 +24 +24 комфорт 1016.8 880.4 +23.5 +23.3
СЗ 1.4
{3.4}
+23.2 +5.8 33 +24 +24 комфорт 1016.7 880.3 +23.3 +23.2
СЗ 1.3
{3.9}
+22.9 +7.0 36 +24 +24 комфорт 1016.7 880.3 +23.2 +22.9
СЗ 0.7
{1.9}
+22.2 +6.9 37 +23 +23 комфорт 1016.8 880.4 +22.6 +22.2
СЗ 0.9
{3.8}
+21.8 +6.2 36 +22 +22 комфорт 1016.8 880.4 +22.2 +21.8
З 0.8
{2.4}
+21.2 +7.2 40 +22 +22 комфорт 1016.9 880.5 +21.8 +21.3
ЮЗ 0.6
{2.3}
+20.5 +9.5 49 +23 +23 комфорт 1017.2 880.7 +21.2 +20.5
ЮЗ 1.0
{3.8}
+19.9 +9.8 52 +22 +22 комфорт 1017.5 881.0 +20.5 +19.9
СВ 0.7
{2.2}
+19.9 +10.4 54 +23 +23 комфорт 1018.1 881.5 +19.9 +19.6
СВ 0.9
{2.8}
+20.0 +9.2 50 +22 +22 комфорт 1018.0 881.4 +20.0 +19.9
В 0.9
{3.2}
+20.0 +9.8 52 +22 +22 комфорт 1018.0 881.4 +20.0 +20.0
ЮВ 0.8
{2.6}
+20.0 +9.9 52 +23 +23 комфорт 1018.0 881.4 +20.1 +20.0
Ю 0.5
{2.1}
+20.1 +11.9 59 +23 +23 комфорт 1018.0 881.4 +20.1 +19.9
ЮВ 0.7
{3.2}
+20.5 +9.0 47 +23 +23 комфорт 1018.0 881.4 +20.5 +20.0
В 1.0
{4.6}
+20.9 +10.9 53 +24 +24 комфорт 1018.1 881.5 +20.9 +20.5
В 1.1
{3.8}
+20.5 +9.6 50 +23 +23 комфорт 1018.0 881.4 +21.0 +20.5
ЮВ 0.7
{3.7}
+19.6 +9.9 53 +22 +22 комфорт 1018.0 881.4 +20.1 +19.6
В 0.9
{4.5}
+19.7 +9.1 50 +22 +22 комфорт 1018.0 881.4 +19.7 +19.6
ЮВ 1.0
{4.3}
+19.4 +8.8 50 +21 +21 комфорт 1017.8 881.3 +19.7 +19.4
Ю 0.6
{2.0}
+19.2 +8.6 50 +21 +21 комфорт 1017.8 881.3 +19.4 +19.2
Ю 0.6
{1.6}
+19.1 +8.3 50 +21 +21 комфорт 1018.0 881.4 +19.2 +19.1
Ю 0.4
{0.9}
+19.0 +8.8 52 +21 +21 комфорт 1018.1 881.5 +19.1 +19.0
Ю 0.4
{0.7}
+18.8 +9.9 56 +21 +21 комфорт 1018.1 881.5 +19.0 +18.8
Ю 0.5
{1.3}
+18.6 +9.7 56 +21 +21 комфорт 1018.3 881.7 +18.8 +18.6
Ю 0.8
{2.0}
+18.6 +9.2 55 +20 +20 1018.4 881.8 +18.6 +18.5
Ю 0.7
{2.3}
+18.4 +9.6 57 +20 +20 1018.4 881.8 +18.6 +18.4
ЮЗ 0.5
{1.7}
+18.1 +9.5 57 +20 +20 1018.5 881.9 +18.4 +18.1
З 0.3
{1.0}
+17.9 +8.9 56 +20 +20 1018.6 882.0 +18.1 +17.9
ЮВ 0.3
{0.9}
+17.9 +9.1 57 +20 +20 1018.6 882.0 +18.0 +17.9
Ю 0.4
{0.9}
+17.6 +10.2 62 +19 +19 1018.5 881.9 +17.9 +17.6
СВ 0.7
{1.4}
+16.8 +11.9 73 +18 +18 1018.4 881.8 +17.1 +16.8
СВ 0.7
{2.0}
+16.5 +11.2 71 +18 +18 1018.5 881.9 +16.8 +16.5
ЮВ 1.0
{3.7}
+16.7 +10.8 68 +18 +18 1018.5 881.9 +16.7 +16.5
Ю 0.7
{1.6}
+16.3 +10.8 70 +17 +17 1018.6 882.0 +16.7 +16.3
В 0.8
{2.5}
+16.1 +10.4 69 +17 +17 1018.8 882.1 +16.3 +16.2
В 0.6
{1.9}
+15.8 +10.5 71 +17 +17 1018.8 882.1 +16.1 +15.8
Ю 0.6
{1.0}
+15.6 +11.6 77 +17 +17 1018.8 882.1 +15.8 +15.6
Ю 0.4
{0.9}
+15.2 +12.6 84 +17 +17 1018.9 882.2 +15.6 +15.3
С 0.3
{1.1}
+15.0 +13.5 91 +17 +17 1018.9 882.2 +15.2 +15.0
Ю 0.6
{2.1}
+15.0 +13.8 92 +16 +16 1018.9 882.2 +15.0 +15.0
В 0.7
{1.6}
+15.0 +12.0 82 +16 +16 1018.9 882.2 +15.0 +14.9
ЮЗ 1.0
{2.7}
+16.0 +3.3 43 +17 +17 1018.6 882.0 +16.0 +15.3
ЮЗ 0.8
{2.5}
+16.4 +3.9 43 +18 +18 1018.6 882.0 +16.4 +16.0
ЮЗ 0.9
{4.0}
+16.7 +3.3 41 +18 +18 1018.6 882.0 +16.8 +16.3
Ю 0.7
{2.4}
+16.1 +4.9 47 +17 +17 1018.6 882.0 +16.8 +16.2
Ю 0.6
{1.0}
+15.1 +5.9 54 +16 +16 1018.8 882.1 +16.1 +15.1
ЮВ 0.7
{1.8}
+14.4 +6.9 61 +15 +15 1018.8 882.1 +15.1 +14.4
ЮВ 0.7
{1.7}
+14.0 +6.9 62 +15 +15 1018.8 882.1 +14.4 +14.0
ЮВ 0.5
{1.0}
+13.2 +8.6 74 +14 +14 1018.8 882.1 +13.5 +13.2
ЮВ 0.5
{1.1}
+12.8 +10.8 88 +14 +14 1018.8 882.1 +12.9 +12.8
В 0.6
{1.6}
+12.5 +12.0 97 +13 +13 1018.8 882.1 +12.8 +12.5
ЮВ 0.6
{1.5}
+12.4 +12.1 98 +13 +13 1018.8 882.1 +12.5 +12.4
ЮВ 0.8
{2.0}
+12.6 +8.6 76 +13 +13 1018.8 882.1 +12.7 +12.6
ЮВ 1.0
{2.4}
+12.5 +8.1 75 +13 +13 1018.8 882.1 +12.6 +12.5
ЮВ 1.0
{2.9}
+12.6 +7.7 72 +13 +13 1018.6 882.0 +12.6 +12.5
В 1.1
{2.6}
+12.6 +6.9 68 +13 +13 1018.6 882.0 +12.6 +12.5
ЮВ 1.0
{2.5}
+12.4 +7.3 71 +13 +13 1018.5 881.9 +12.6 +12.4
Ю 0.7
{1.5}
+12.2 +7.3 72 +13 +13 1018.4 881.8 +12.4 +12.2
ЮВ 0.7
{1.5}
+12.1 +7.7 75 +13 +13 1018.4 881.8 +12.2 +12.1
ЮВ 0.7
{1.6}
+11.8 +7.9 77 +12 +12 1018.4 881.8 +12.1 +11.8
ЮВ 0.7
{1.5}
+11.8 +8.0 77 +12 +12 1018.3 881.7 +11.8 +11.8
Ю 0.6
{1.3}
+11.7 +8.1 78 +12 +12 1018.3 881.7 +11.8 +11.7
Ю 0.7
{1.3}
+11.9 +8.2 78 +12 +12 1018.4 881.8 +11.9 +11.7
Ю 0.7
{1.2}
+11.9 +8.2 78 +12 +12 1018.5 881.9 +11.9 +11.8
Ю 0.9
{1.6}
+12.1 +8.2 77 +12 +12 1018.5 881.9 +12.1 +11.9
Ю 0.7
{1.3}
+12.0 +8.6 80 +12 +12 1018.5 881.9 +12.1 +12.0
Ю 0.8
{1.5}
+12.1 +7.8 75 +12 +12 1018.6 882.0 +12.1 +11.9
ЮВ 0.8
{2.1}
+12.3 +7.1 70 +13 +13 1018.6 882.0 +12.3 +12.1
Ю 1.0
{1.5}
+12.5 +7.1 70 +13 +13 1018.5 881.9 +12.5 +12.3
Ю 0.9
{1.6}
+12.7 +6.8 67 +13 +13 1018.4 881.8 +12.7 +12.5
Ю 0.8
{1.6}
+12.8 +6.4 65 +13 +13 1018.5 881.9 +12.8 +12.7
Ю 0.9
{1.6}
+13.0 +6.2 63 +13 +13 1018.5 881.9 +13.0 +12.8
Ю 0.7
{1.4}
+13.0 +7.8 71 +14 +14 1018.6 882.0 +13.1 +13.0
Ю 0.3
{1.2}
+12.7 +8.0 73 +14 +14 1018.8 882.1 +13.0 +12.7
ЮВ 0.6
{1.4}
+12.4 +9.5 83 +13 +13 1018.6 882.0 +12.5 +12.4
Ю 0.8
{1.4}
+12.3 +9.9 86 +13 +13 1018.8 882.1 +12.4 +12.3
Ю 0.6
{1.1}
+12.3 +10.6 90 +13 +13 1018.6 882.0 +12.3 +12.2
ЮВ 0.7
{1.6}
+12.2 +9.6 84 +13 +13 1018.9 882.2 +12.3 +12.2
ЮЗ 0.9
{3.2}
+12.8 +7.5 70 +13 +13 1019.0 882.3 +12.8 +12.2
Ю 0.4
{1.2}
+12.7 +9.4 80 +14 +14 1019.0 882.3 +12.8 +12.7
ЮВ 0.5
{1.3}
+12.7 +9.8 83 +14 +14 1019.0 882.3 +12.7 +12.7
ЮЗ 0.6
{1.0}
+12.9 +9.6 80 +14 +14 1019.0 882.3 +12.9 +12.7
Ю 0.6
{1.5}
+13.0 +10.7 86 +14 +14 1019.0 882.3 +13.0 +12.9
ЮВ 0.6
{1.2}
+12.9 +12.9 100 +13 +13 1018.9 882.2 +13.0 +12.9
Ю 0.7
{1.2}
+13.5 +10.8 84 +14 +14 1018.9 882.2 +13.5 +12.9
Ю 0.3
{0.8}
+13.9 +11.0 83 +15 +15 1019.0 882.3 +13.9 +13.5
Ю 0.3
{0.6}
+13.9 +12.6 92 +15 +15 1019.0 882.3 +13.9 +13.9
Ю 0.4
{0.8}
+13.9 +13.3 97 +15 +15 1019.1 882.4 +13.9 +13.9
Ю 0.6
{1.1}
+13.9 +13.2 96 +15 +15 1019.1 882.4 +13.9 +13.8
Ю 0.5
{0.8}
+14.1 +14.1 100 +15 +15 1019.1 882.4 +14.1 +13.9
Ю 0.4
{0.8}
+14.4 +14.4 100 +16 +16 1019.1 882.4 +14.4 +14.1
ЮВ 0.4
{0.9}
+14.9 +12.5 86 +16 +16 1019.1 882.4 +14.9 +14.4
Ю 0.6
{1.8}
+16.1 +10.7 70 +17 +17 1019.1 882.4 +16.1 +14.9
Ю 0.7
{1.5}
+17.8 +8.9 56 +19 +19 1019.1 882.4 +17.8 +17.2
Местоположение метеостанции Сарыканда (Андижанская область, Узбекистан): широта 39.94 долгота 71.12 высота над уровнем моря 0 м.
В архиве по умолчанию представлена погода в Сарыканде за последние 1-2 суток. Обновление информации о фактической погоде в базе происходит ежечасно! Архивные данные за месяц целиком и за предыдущие месяцы Вы можете получить, выбрав интересующий диапазон дат из раскрывающегося списка и нажав кнопку "Ввод!".
*Определитесь, кто Вы:
Внимание! Время в таблицах - местное (без учета летнего времени). Для получения всемирного времени необходимо вычесть поправку, которая равна 5 ч.
Смотрите также архив погоды на ближайших метеорологических станциях:
Партнеры нашего сайта:      
Пояснения к столбцам:
  • Ветер - указаны скорость ветра в м/с - средняя за 10 мин, порывы в срок и между сроками (в фигурных скобках) и направление, откуда дует ветер: С - северный,
  • СВ - северо-восточный, В - восточный, ЮВ - юго-восточный, Ю - южный, ЮЗ - юго-западный, З - западный, СЗ - северо-западный.
  • Видимость - горизонтальная дальность видимости в метрах или километрах. При видимости от 1 до 10 км при отсутствии осадков обычно наблюдается дымка, при ухудшении видимости до 1 км и менее - туман. В сухую погоду видимость может ухудшаться дымом, пылью или мглою.
  • Явления - указаны атмосферные явления, наблюдавшиеся в срок или в последний час перед сроком.
  • Солнечная радиация - мощность потока солнечного излучения на поверхность земли и предметов в Вт/м2.
  • T - Температура воздуха - температура, измеренная на высоте 2 м над землей.
  • Td - Температура точки росы - температура, при понижении до которой содержащийся в воздухе водяной пар достигнет насыщения.
  • f - Относительная влажность воздуха - влажноcть воздуха, измеренная на высоте 2 м над землей.
  • Te - Эффективная температура - температура, которую ощущает одетый по сезону человек в тени. Характеристика душности погоды. При расчете учитывается влияние влажности воздуха и скорости ветра на теплоощущения человека.
  • Tes - Эффективная температура на солнце - температура, которую ощущает человек, с поправкой на солнечный нагрев. Характеристика знойности погоды. Зависит от высоты солнца над горизонтом, облачности и скорости ветра. Ночью, в пасмурную погоду, а также при ветре 12 м/с и более поправка равна нулю.
  • P - Атмосферное давление - приведенное к уровню моря атмосферное давление.
  • Po - Атмосферное давление - измеренное на уровне метеостанции атмосферное давление.
  • Tmin - Минимальная температура - минимум температуры воздуха на высоте 2 м над землей.
  • Tmax - Максимальная температура - максимум температуры воздуха на высоте 2 м над землей.
  • R - Количество осадков - Количество выпавших осадков за период времени, мм. При наведении курсора мыши на число - период времени, за который выпало указанное количество осадков.